Temp
74 76 75 75 63 63 60 65 70 63 66 81 83 84 80 83 78 64 83 83 82 77 79 81 80 81 81 80 80 80 79 79 79 79 79 79 79 80 80 80 80 81 82 82 82 81 81 81 81
80 85 77 72 60 55 61 67 69 70 79 89 88 86 82 79 86 82 81 84 82 80 77 78 80 80 80 80 80 79 79 79 79 79 79 79 79 80 80 80 81 81 82 82 82 81 81 81 81
80 84 69 64 59 60 61 73 70 76 81 86 82 86 84 80 88 85 86 87 84 78 77 79 79 80 80 80 80 79 79 79 79 79 79 79 79 79 79 80 80 81 82 82 82 81 81 81 81
80 75 73 61 60 71 73 64 70 75 79 86 83 78 85 92 89 89 90 87 81 78 76 79 79 79 80 80 80 79 79 79 79 80 79 79 79 79 79 80 80 81 81 81 81 81 80 80 80
77 71 60 57 64 76 84 85 81 80 81 84 84 77 79 91 94 93 89 87 81 77 75 77 79 79 80 80 80 79 79 79 79 79 79 79 79 79 79 79 80 80 81 81 81 80 80 80 80
69 70 57 55 66 79 85 88 88 86 82 81 80 79 79 91 92 92 89 85 83 79 76 78 79 79 79 79 79 79 78 79 79 79 79 79 79 79 79 79 80 80 80 80 80 80 79 79 79
64 61 59 63 70 76 83 89 86 84 82 81 85 76 80 87 92 92 88 86 83 81 78 76 76 79 79 78 78 78 78 78 78 78 78 79 79 79 79 79 79 80 80 80 79 79 79 79 78
73 65 61 65 68 71 86 89 92 89 83 92 89 75 75 87 92 91 88 85 83 81 80 77 76 76 75 76 79 78 78 78 78 78 78 78 79 79 79 78 79 79 79 79 79 79 78 78 78
84 60 59 64 70 78 88 84 89 95 88 88 89 86 89 93 94 88 85 84 82 83 80 79 79 78 78 76 79 78 80 79 79 79 79 78 75 77 78 78 79 79 79 79 79 78 78 78 77
72 62 66 76 81 81 84 86 86 86 85 85 86 91 93 93 91 89 84 81 82 81 82 81 82 81 80 84 76 75 77 75 75 78 76 75 75 76 81 80 80 80 79 79 78 78 78 78 77
72 67 78 81 83 86 84 82 89 83 76 83 82 86 90 90 88 88 90 85 84 84 85 85 84 83 82 81 77 77 76 76 76 80 77 76 77 79 77 75 76 75 78 76 78 77 77 77 79
70 76 81 84 86 84 82 84 83 83 82 89 89 89 88 87 84 84 85 87 86 86 85 82 82 81 81 79 78 77 76 75 74 74 74 70 70 71 71 71 73 73 73 75 75 75 77 78 78
71 77 82 85 87 86 86 80 81 81 90 90 90 90 87 85 85 87 88 86 86 84 83 79 78 76 74 74 73 73 71 72 72 71 72 69 69 68 68 69 70 70 70 70 70 71 73 73 75
74 79 81 84 82 84 79 82 82 86 90 88 88 86 86 85 86 82 86 84 84 82 79 77 77 75 74 73 73 71 71 71 71 70 71 71 68 68 68 68 69 68 69 69 69 69 69 70 71
76 70 79 80 82 77 79 75 76 86 84 85 84 85 84 84 86 81 79 81 82 81 78 76 74 74 73 72 72 70 72 72 70 71 72 72 69 68 67 66 66 66 67 68 68 69 69 68 71
67 65 60 74 78 80 77 68 79 84 83 81 83 85 84 83 83 81 81 79 78 78 76 76 81 72 71 70 70 71 70 70 69 69 69 72 70 68 66 65 65 66 66 66 66 66 66 65 65
60 56 59 69 79 78 75 68 81 83 80 79 81 81 81 80 78 79 81 79 77 77 76 72 73 71 70 70 69 70 70 70 70 68 68 70 71 70 64 64 64 65 65 64 65 64 63 63 64
53 55 61 63 73 75 70 70 78 82 78 77 79 81 80 78 76 78 79 78 76 75 73 71 72 70 70 69 68 68 69 68 69 66 67 68 67 68 64 63 63 64 63 63 63 62 63 62 63
64 62 62 70 77 73 70 70 77 83 77 73 74 78 78 78 77 80 80 77 76 73 71 70 69 68 68 66 66 65 66 66 66 66 69 68 67 68 64 62 62 62 61 60 62 61 61 60 63
66 62 61 68 74 73 71 73 76 80 78 75 75 74 77 76 78 79 77 77 77 74 71 68 70 66 68 67 66 67 66 66 67 66 66 67 67 67 65 62 61 61 60 60 60 60 59 59 62
65 62 61 63 71 72 66 67 72 79 78 85 79 81 79 80 79 78 76 75 75 74 72 69 67 66 68 67 66 65 65 65 64 63 63 65 68 68 66 64 62 61 59 58 58 59 59 56 59
59 69 70 68 62 52 64 48 62 68 73 75 75 78 77 82 80 79 76 73 74 75 75 71 69 66 68 66 65 64 63 62 62 65 63 64 67 67 66 65 63 61 59 58 58 62 58 57 55
64 71 66 65 59 53 61 49 57 65 66 74 77 74 75 78 80 79 77 76 76 76 75 73 71 68 68 66 65 64 62 64 64 63 63 62 64 65 67 65 63 61 59 59 59 59 58 57 56
74 65 62 59 53 44 57 52 54 57 67 72 79 81 78 77 78 81 79 78 76 76 75 73 70 71 70 67 66 64 64 63 62 62 61 61 62 62 64 65 62 61 60 59 59 59 59 57 57
64 52 38 38 39 40 57 55 59 65 71 73 75 80 82 80 77 78 78 77 75 74 74 74 71 69 70 68 65 65 64 63 62 61 60 60 60 61 61 62 61 60 60 60 59 58 57 57 56
58 54 40 34 34 45 58 49 60 71 78 80 73 74 83 79 75 74 78 79 78 77 74 73 71 68 69 69 64 64 64 63 62 62 61 60 60 60 62 61 61 61 61 60 59 57 57 57 56
59 54 57 48 47 42 48 57 68 74 73 78 71 72 69 70 71 72 74 78 79 78 74 73 71 71 71 68 67 64 63 62 62 62 61 61 61 63 61 60 60 60 60 59 58 57 57 57 56
64 68 50 46 35 35 47 50 52 62 68 69 67 68 69 70 71 72 73 74 73 80 75 74 73 71 70 68 68 66 64 63 62 62 61 61 60 61 60 60 59 59 59 59 58 56 57 56 55
58 57 57 51 50 39 34 43 58 63 67 67 68 67 66 69 71 70 71 71 73 79 75 73 71 70 69 68 67 63 62 63 62 61 61 61 60 60 60 60 59 59 58 58 57 56 57 56 55
59 56 55 40 42 44 45 46 65 67 67 75 72 71 70 70 69 70 70 73 70 74 73 72 71 70 70 69 66 63 63 63 61 61 61 61 60 60 60 60 59 59 59 58 57 56 58 56 55
MSLP
1009.80 1009.70 1010.38 1010.35 1010.80 1009.80 1009.68 1010.39 1009.62 1011.89 1010.77 1005.76 1004.19 1003.70 1004.90 1004.54 1005.72 1009.04 1010.18 1009.69 1010.47 1011.25 1011.47 1011.61 1011.93 1012.22 1012.57 1012.99 1013.34 1013.66 1013.97 1014.24 1014.50 1014.74 1015.01 1015.21 1015.32 1015.45 1015.60 1015.74 1015.87 1015.98 1016.10 1016.20 1016.27 1016.27 1016.22 1016.10 1015.97
1009.41 1009.40 1010.11 1009.80 1009.71 1009.23 1008.36 1008.64 1009.81 1009.66 1007.09 1004.44 1003.89 1004.60 1004.54 1005.67 1005.94 1008.46 1009.58 1010.34 1010.45 1010.95 1011.38 1011.78 1012.04 1012.40 1012.78 1013.12 1013.45 1013.80 1014.13 1014.38 1014.62 1014.85 1015.09 1015.29 1015.46 1015.62 1015.78 1015.90 1016.01 1016.13 1016.23 1016.30 1016.37 1016.41 1016.37 1016.29 1016.13
1009.41 1009.22 1009.54 1009.26 1008.51 1007.58 1006.78 1006.98 1007.43 1006.12 1006.49 1005.61 1003.80 1004.38 1005.04 1005.96 1006.63 1007.99 1009.03 1010.06 1010.44 1011.20 1011.55 1011.93 1012.12 1012.44 1012.80 1013.15 1013.48 1013.85 1014.16 1014.41 1014.62 1014.83 1015.08 1015.36 1015.60 1015.75 1015.86 1015.96 1016.02 1016.10 1016.21 1016.27 1016.31 1016.33 1016.34 1016.32 1016.20
1009.05 1008.97 1008.83 1008.41 1007.63 1005.12 1005.69 1006.95 1008.50 1007.83 1006.91 1004.37 1004.10 1005.04 1005.58 1005.72 1006.37 1007.61 1008.84 1009.78 1010.54 1011.48 1011.92 1012.22 1012.46 1012.75 1013.03 1013.34 1013.63 1013.95 1014.25 1014.49 1014.74 1015.04 1015.29 1015.51 1015.73 1015.87 1015.96 1016.05 1016.17 1016.26 1016.36 1016.44 1016.46 1016.49 1016.49 1016.44 1016.35
1008.77 1008.77 1008.75 1008.03 1006.55 1004.55 1003.38 1004.29 1003.07 1004.87 1004.22 1003.98 1004.00 1005.76 1005.82 1006.02 1006.64 1007.44 1008.60 1009.56 1010.47 1011.69 1012.18 1012.48 1012.73 1013.05 1013.38 1013.63 1013.91 1014.14 1014.40 1014.67 1014.96 1015.17 1015.38 1015.59 1015.80 1015.98 1016.08 1016.15 1016.25 1016.37 1016.44 1016.48 1016.51 1016.53 1016.49 1016.44 1016.36
1009.03 1008.40 1008.54 1007.84 1005.91 1003.58 1002.12 1001.83 1001.32 1001.96 1002.86 1003.88 1004.70 1005.54 1006.18 1006.32 1006.68 1007.36 1008.59 1009.64 1010.59 1011.31 1012.19 1012.62 1012.96 1013.24 1013.63 1013.90 1014.15 1014.38 1014.62 1014.87 1015.08 1015.27 1015.47 1015.70 1015.92 1016.04 1016.13 1016.25 1016.34 1016.42 1016.47 1016.51 1016.52 1016.53 1016.51 1016.46 1016.35
1008.73 1008.87 1008.12 1007.32 1005.69 1003.41 1001.71 1000.59 1000.27 1001.22 1001.86 1003.31 1003.70 1005.48 1006.40 1006.59 1006.59 1007.54 1008.74 1009.46 1010.28 1010.90 1011.82 1012.70 1013.09 1013.38 1013.76 1014.07 1014.33 1014.55 1014.79 1015.01 1015.22 1015.41 1015.59 1015.76 1015.93 1016.07 1016.10 1016.20 1016.29 1016.36 1016.43 1016.46 1016.46 1016.43 1016.39 1016.33 1016.26
1007.84 1008.47 1007.85 1006.77 1005.46 1003.04 1000.80 1000.54 999.23 999.86 1000.66 1002.21 1002.63 1004.62 1005.78 1006.05 1006.74 1007.57 1008.42 1009.31 1010.21 1010.94 1011.08 1012.06 1012.85 1013.30 1013.83 1014.20 1014.46 1014.71 1014.94 1015.13 1015.36 1015.51 1015.70 1015.85 1015.98 1016.11 1016.25 1016.31 1016.30 1016.23 1016.20 1016.23 1016.26 1016.24 1016.15 1016.02 1015.90
1007.30 1007.95 1007.40 1006.38 1004.79 1002.63 1001.37 1001.08 999.10 998.95 1000.73 1001.92 1002.20 1003.05 1004.42 1005.37 1006.38 1007.66 1008.60 1009.48 1010.30 1011.04 1011.59 1012.19 1012.60 1013.05 1013.44 1014.08 1014.41 1014.70 1014.96 1015.09 1015.26 1015.40 1015.62 1015.73 1015.91 1015.95 1016.03 1016.03 1016.03 1015.95 1015.97 1016.01 1016.02 1016.02 1015.90 1015.82 1015.75
1007.01 1006.68 1006.26 1005.33 1003.90 1002.99 1001.92 1001.39 1000.05 1000.12 1000.78 1001.56 1002.85 1003.67 1004.35 1005.11 1005.93 1006.95 1008.02 1009.02 1009.91 1010.80 1011.49 1011.95 1012.31 1012.80 1013.17 1013.43 1014.11 1014.42 1014.75 1014.98 1015.18 1015.28 1015.47 1015.53 1015.55 1015.57 1015.50 1015.48 1015.64 1015.70 1015.80 1015.77 1015.69 1015.65 1015.61 1015.72 1015.55
1006.43 1005.98 1005.60 1004.53 1003.36 1003.05 1002.39 1001.49 1001.17 999.91 1001.43 1001.30 1002.38 1003.55 1004.31 1005.05 1005.68 1006.30 1006.90 1007.95 1008.93 1009.99 1010.81 1011.37 1011.97 1012.34 1012.77 1013.23 1013.97 1014.39 1014.63 1014.79 1015.03 1015.17 1015.48 1015.57 1015.54 1015.43 1015.49 1015.78 1015.92 1015.86 1015.84 1015.71 1015.48 1015.28 1015.26 1015.24 1015.14
1006.09 1005.35 1004.80 1003.81 1002.78 1002.90 1002.24 1001.73 1001.48 1001.03 1001.03 1001.24 1002.06 1003.02 1004.14 1004.91 1005.66 1006.13 1006.39 1007.25 1008.68 1009.76 1010.30 1011.11 1011.90 1012.28 1012.54 1013.28 1013.76 1014.01 1014.44 1014.81 1015.17 1015.24 1015.44 1015.81 1015.89 1015.93 1016.07 1016.09 1016.01 1015.98 1015.92 1015.80 1015.59 1015.41 1015.34 1015.27 1015.08
1005.46 1004.89 1004.29 1003.75 1003.02 1002.49 1002.17 1001.77 1001.35 1001.45 1000.94 1001.22 1001.96 1002.90 1003.92 1004.81 1005.54 1006.01 1006.38 1007.32 1008.44 1009.56 1010.62 1011.21 1011.72 1012.50 1012.99 1013.56 1013.85 1014.21 1014.60 1014.85 1015.23 1015.50 1015.63 1015.93 1016.22 1016.44 1016.25 1016.21 1016.13 1016.12 1016.00 1016.01 1015.95 1015.67 1015.51 1015.27 1014.88
1005.24 1004.59 1003.83 1003.33 1003.22 1002.44 1002.29 1001.62 1001.46 1000.97 1001.20 1001.58 1002.12 1003.01 1003.87 1004.55 1005.20 1005.85 1006.72 1007.89 1008.69 1009.46 1010.47 1011.24 1011.79 1012.56 1012.60 1013.12 1013.75 1014.18 1014.46 1015.02 1015.36 1015.63 1015.93 1016.11 1016.35 1016.55 1016.61 1016.66 1016.52 1016.43 1016.30 1016.08 1015.85 1015.77 1015.70 1015.48 1015.13
1004.82 1004.68 1003.77 1003.21 1002.51 1002.28 1002.27 1001.81 1001.60 1000.86 1001.09 1001.81 1002.44 1003.10 1003.98 1004.69 1005.19 1006.25 1006.98 1008.04 1008.56 1009.59 1010.48 1011.21 1011.80 1012.55 1012.69 1013.37 1013.87 1014.32 1014.55 1015.00 1015.46 1015.76 1015.98 1016.20 1016.39 1016.63 1016.84 1016.96 1017.07 1016.87 1016.56 1016.34 1016.12 1015.91 1015.74 1015.68 1015.33
1004.84 1004.62 1003.85 1002.71 1002.39 1001.89 1002.16 1001.82 1001.44 1000.72 1001.88 1002.00 1002.48 1003.28 1004.02 1004.80 1005.49 1006.19 1007.05 1008.03 1008.93 1009.80 1010.66 1011.21 1011.69 1012.64 1013.14 1013.80 1014.20 1014.39 1014.80 1015.11 1015.58 1015.89 1016.19 1016.26 1016.61 1016.77 1016.96 1017.16 1017.28 1016.98 1016.70 1016.67 1016.66 1016.59 1016.29 1016.09 1015.94
1005.28 1004.75 1003.95 1002.93 1002.09 1001.90 1001.69 1001.57 1001.02 1001.08 1001.48 1002.06 1002.49 1003.21 1004.14 1004.82 1005.77 1006.23 1007.08 1007.94 1008.98 1009.70 1010.47 1011.20 1011.87 1012.88 1013.59 1014.08 1014.30 1014.51 1014.91 1015.20 1015.60 1016.03 1016.25 1016.45 1016.68 1016.85 1017.10 1017.27 1017.22 1016.94 1016.94 1016.97 1016.99 1016.81 1016.75 1016.54 1016.18
1005.42 1004.82 1003.96 1003.13 1002.35 1001.83 1001.79 1001.40 1001.30 1001.07 1001.91 1001.87 1002.41 1002.97 1003.80 1004.78 1005.50 1005.95 1006.99 1007.90 1008.88 1009.80 1010.51 1011.41 1012.34 1013.11 1013.74 1014.15 1014.48 1014.78 1015.16 1015.34 1015.68 1016.12 1016.33 1016.55 1016.74 1016.91 1017.11 1017.32 1017.37 1017.24 1017.38 1017.29 1017.25 1017.13 1016.87 1016.80 1016.53
1004.96 1004.59 1003.84 1002.69 1002.02 1002.20 1001.93 1001.51 1001.13 1000.93 1001.75 1002.22 1002.27 1002.80 1003.39 1004.19 1004.92 1005.62 1006.62 1007.67 1008.85 1009.93 1010.83 1011.79 1012.77 1013.21 1013.65 1014.21 1014.76 1015.20 1015.55 1015.71 1016.13 1016.06 1016.15 1016.48 1016.75 1016.96 1017.22 1017.49 1017.47 1017.38 1017.65 1017.59 1017.42 1017.32 1017.19 1016.97 1016.60
1004.27 1004.02 1003.31 1002.38 1001.81 1001.91 1001.68 1000.98 1000.88 1000.74 1001.12 1001.64 1002.35 1002.76 1002.94 1003.74 1004.68 1005.46 1006.38 1007.32 1008.22 1009.42 1010.47 1011.74 1012.62 1013.13 1013.47 1013.81 1014.27 1014.65 1015.08 1015.51 1015.76 1015.90 1016.15 1016.43 1016.72 1016.96 1017.18 1017.36 1017.53 1017.54 1017.60 1017.70 1017.74 1017.73 1017.69 1017.36 1016.98
1003.19 1003.19 1002.95 1002.69 1001.80 1001.79 1001.87 1001.32 1000.81 1000.36 1000.60 1000.95 1001.05 1001.57 1002.24 1002.85 1003.96 1004.91 1005.92 1006.79 1007.82 1008.88 1009.82 1010.97 1012.29 1012.82 1013.19 1013.58 1014.18 1014.70 1015.12 1015.69 1016.11 1016.29 1016.46 1016.52 1016.57 1016.74 1016.91 1017.15 1017.28 1017.51 1017.62 1017.85 1017.90 1017.86 1017.96 1017.91 1017.37
1002.23 1002.15 1002.36 1002.37 1002.54 1002.55 1001.80 1001.93 1001.06 1000.24 1000.13 1000.28 1000.73 1001.16 1001.56 1002.19 1003.04 1003.85 1005.05 1006.21 1006.99 1007.98 1009.08 1010.05 1011.39 1012.52 1013.04 1013.56 1013.98 1014.45 1014.90 1015.69 1015.77 1015.89 1016.23 1016.47 1016.35 1016.53 1016.66 1016.83 1017.02 1017.30 1017.43 1017.74 1017.79 1017.85 1017.96 1018.03 1017.99
1001.38 1001.76 1002.30 1002.53 1002.84 1002.99 1002.44 1002.91 1001.27 1000.25 1000.25 999.88 999.91 1000.57 1000.92 1001.29 1001.96 1002.93 1003.92 1004.94 1006.05 1007.19 1008.28 1009.27 1010.34 1011.78 1012.70 1013.43 1013.77 1014.35 1014.91 1015.25 1015.39 1015.85 1016.24 1016.40 1016.28 1016.32 1016.44 1016.54 1016.72 1017.16 1017.34 1017.44 1017.60 1017.66 1017.83 1017.91 1017.97
1000.98 1001.73 1002.62 1003.14 1003.81 1004.13 1003.09 1002.79 1001.28 1000.81 999.48 999.38 999.19 999.34 999.95 1000.38 1000.94 1001.94 1002.88 1004.13 1005.50 1006.58 1007.72 1008.77 1009.60 1010.67 1011.63 1012.73 1013.51 1014.05 1014.66 1015.23 1015.65 1016.08 1016.37 1016.28 1016.20 1016.20 1016.28 1016.35 1016.69 1016.87 1017.22 1017.27 1017.37 1017.47 1017.60 1017.66 1017.62
1000.97 1002.32 1004.13 1005.01 1004.93 1004.15 1003.12 1002.75 1000.63 999.91 999.09 998.57 998.85 998.57 998.75 999.50 1000.09 1001.19 1002.54 1003.85 1004.98 1006.07 1006.92 1007.95 1009.00 1010.23 1011.07 1011.96 1012.84 1013.51 1014.17 1014.87 1015.42 1015.74 1016.01 1016.24 1016.31 1016.27 1016.32 1016.49 1016.75 1016.90 1016.81 1016.83 1017.01 1017.24 1017.31 1017.40 1017.40
1001.23 1002.59 1004.46 1005.37 1005.61 1004.49 1003.38 1002.38 999.34 999.53 998.50 998.09 998.22 997.78 997.56 998.62 999.27 1000.39 1001.50 1002.67 1003.60 1004.60 1005.97 1007.23 1008.56 1009.79 1010.69 1011.43 1012.39 1013.06 1013.80 1014.38 1014.91 1015.33 1015.68 1015.97 1016.02 1016.13 1016.16 1016.40 1016.56 1016.62 1016.56 1016.58 1016.70 1016.89 1016.94 1017.03 1017.05
1001.17 1002.21 1003.19 1004.50 1005.25 1005.30 1003.99 1002.13 999.97 998.86 998.35 997.75 998.52 998.34 998.93 999.10 1000.04 1000.62 1001.50 1002.20 1003.29 1004.35 1005.32 1006.40 1007.86 1009.08 1010.07 1010.90 1011.75 1012.55 1013.20 1013.81 1014.46 1014.98 1015.38 1015.67 1015.73 1015.79 1016.07 1016.30 1016.50 1016.39 1016.29 1016.32 1016.52 1016.52 1016.54 1016.61 1016.65
1000.73 1001.65 1003.10 1004.32 1005.75 1005.68 1004.24 1002.72 1000.81 999.31 998.08 997.96 998.39 998.74 999.27 999.77 1000.39 1000.70 1001.28 1001.84 1002.53 1003.39 1004.66 1005.97 1007.19 1008.34 1009.54 1010.61 1011.42 1012.08 1012.61 1013.32 1014.04 1014.62 1015.04 1015.37 1015.53 1015.70 1015.87 1016.05 1016.13 1016.11 1016.08 1016.14 1016.17 1016.14 1016.08 1016.20 1016.24
1001.66 1002.49 1002.57 1004.14 1005.08 1005.46 1004.89 1002.95 1001.01 999.67 998.97 999.02 998.76 999.31 999.90 1000.02 1000.73 1001.12 1001.51 1001.74 1002.43 1003.21 1004.56 1005.75 1007.10 1008.33 1009.51 1010.35 1011.10 1011.73 1012.36 1013.00 1013.56 1014.08 1014.54 1014.93 1015.18 1015.39 1015.56 1015.64 1015.66 1015.71 1015.73 1015.75 1015.75 1015.70 1015.66 1015.74 1015.77
1003.73 1004.15 1004.00 1005.30 1005.92 1005.33 1004.75 1003.10 1001.30 1000.43 999.36 999.74 999.74 1000.24 1000.19 1000.57 1000.99 1001.37 1001.86 1002.03 1002.78 1003.70 1004.47 1005.67 1007.05 1008.21 1009.20 1009.86 1010.66 1011.40 1012.00 1012.63 1013.26 1013.76 1014.14 1014.43 1014.71 1014.94 1015.07 1015.15 1015.20 1015.27 1015.31 1015.30 1015.31 1015.30 1015.20 1015.28 1015.36
Wind_Speed
6 6 2 2 3 3 4 8 14 6 14 8 7 16 15 10 7 10 8 19 19 14 11 14 16 16 16 15 14 14 13 13 13 13 12 11 10 10 9 9 9 8 9 8 7 6 4 3 4
4 4 2 4 2 2 7 11 14 20 19 16 21 19 22 19 16 21 10 15 17 14 11 12 16 16 15 15 14 14 13 13 13 12 12 11 9 9 8 8 7 7 7 7 6 4 3 1 6
3 5 2 5 4 9 4 8 16 31 26 10 10 8 6 7 13 7 20 19 17 12 10 12 17 17 16 15 15 14 13 13 13 13 12 11 9 8 7 7 7 6 6 6 5 4 2 2 5
2 3 4 1 10 20 6 22 12 21 18 6 12 10 6 8 11 16 24 22 17 13 9 12 14 14 14 14 14 13 13 12 12 11 10 9 8 8 7 6 5 5 4 4 3 2 2 3 6
2 2 3 4 10 16 16 20 30 31 7 17 11 7 7 8 25 25 24 20 19 13 9 8 14 14 13 14 13 12 12 11 10 10 10 9 8 7 6 6 5 4 4 3 3 3 4 5 7
3 2 2 5 11 17 16 7 15 11 25 20 19 13 6 11 18 18 22 20 17 16 11 9 13 13 12 12 12 11 10 10 10 9 9 8 8 7 7 6 5 4 4 4 4 4 5 7 8
3 3 7 9 15 20 16 6 9 15 17 11 19 16 9 8 12 23 23 21 19 17 14 9 8 12 13 11 11 11 10 10 9 8 8 8 7 8 8 7 6 6 5 5 5 6 7 8 9
2 2 7 7 12 19 15 8 10 14 6 20 21 10 13 12 15 23 21 19 17 14 17 15 11 10 8 7 11 10 9 9 9 8 7 6 7 7 6 7 7 8 9 8 8 9 10 11 11
5 2 7 10 14 19 15 14 2 9 24 6 6 17 22 17 18 20 19 18 15 13 12 11 12 10 11 9 9 9 10 9 8 7 8 6 4 6 8 9 11 12 11 10 11 12 12 12 13
7 5 14 10 18 17 16 18 5 9 11 18 18 18 21 20 17 19 20 18 16 16 15 13 13 11 11 9 8 7 7 4 5 5 5 4 5 6 8 11 13 13 12 12 12 14 14 11 6
6 13 11 13 20 15 21 14 9 17 7 21 28 23 20 12 13 14 20 23 22 20 15 15 14 13 10 8 5 3 3 3 3 4 3 2 1 2 3 2 2 4 7 5 6 7 6 8 6
13 12 15 18 23 17 18 10 10 3 10 23 22 19 14 10 9 9 8 19 23 20 16 10 12 8 8 7 5 6 4 3 3 5 7 5 4 5 4 3 3 3 3 4 4 3 3 4 6
10 13 15 14 24 20 17 6 9 7 16 23 24 20 15 10 8 10 11 20 21 20 15 12 11 9 6 9 5 5 5 5 5 5 6 5 5 5 5 5 4 3 4 4 5 5 6 6 6
8 13 16 16 13 16 10 6 3 14 8 20 22 16 13 12 10 5 18 22 19 18 14 11 10 8 8 7 8 5 5 6 6 5 5 7 4 4 5 5 5 5 5 5 5 5 5 5 5
10 9 15 13 15 12 5 9 8 13 4 23 18 14 10 10 10 10 10 19 20 16 15 11 10 8 8 8 7 5 3 6 5 5 6 5 4 5 5 4 5 4 4 7 6 6 6 6 6
7 6 8 11 7 8 8 12 8 12 13 19 19 14 10 9 11 12 15 14 14 17 16 10 11 9 9 6 5 5 5 5 5 5 5 7 7 6 5 4 4 4 5 4 4 4 4 5 5
6 9 9 9 9 6 9 7 10 2 8 16 17 12 10 8 7 10 17 17 15 14 13 10 12 9 8 6 5 6 7 5 5 5 5 6 6 6 5 4 4 4 4 4 3 3 3 4 5
9 6 8 9 7 9 10 9 8 7 7 12 16 16 13 11 10 13 17 16 15 12 10 12 9 10 9 6 5 4 4 3 5 5 5 6 4 6 5 4 5 5 4 5 4 4 3 3 4
8 12 11 11 15 13 11 9 16 16 7 8 10 15 14 13 12 16 18 18 17 13 11 13 11 9 7 3 4 4 4 3 3 4 7 6 5 4 3 2 4 4 4 4 5 3 4 3 4
16 14 15 11 9 14 18 25 11 16 10 12 10 9 14 10 15 16 19 17 19 18 14 11 11 9 8 5 3 4 4 2 4 4 5 6 5 3 3 1 2 3 4 6 6 5 4 3 3
15 16 11 14 17 8 6 20 20 17 8 19 15 16 13 16 20 18 20 20 19 19 17 15 11 10 9 7 4 4 5 4 3 2 3 4 6 5 4 3 1 1 2 3 4 4 5 4 3
13 10 13 16 6 7 5 7 6 8 8 5 8 15 14 18 16 20 21 20 22 20 18 17 15 10 7 8 5 7 5 5 4 4 4 5 6 6 5 5 5 4 2 2 3 2 2 3 4
9 8 7 6 6 4 15 1 9 8 8 13 12 10 14 16 19 23 23 24 22 20 19 18 18 13 8 7 7 6 4 3 3 3 7 5 4 5 6 6 6 5 3 3 3 4 5 2 2
7 5 8 6 3 6 15 7 9 6 12 10 18 17 14 14 13 20 22 24 20 19 18 18 20 19 15 9 8 9 9 5 4 4 5 3 2 2 5 4 4 3 3 3 3 3 3 4 4
4 3 3 5 3 10 8 9 14 8 10 10 13 21 19 18 14 19 23 21 20 22 22 19 19 17 15 13 10 9 8 7 7 5 4 3 2 1 2 2 2 3 3 3 4 4 5 4 4
7 9 8 8 4 9 6 7 17 14 20 18 4 10 20 18 11 15 24 24 26 25 23 21 19 17 16 14 10 8 8 5 4 5 4 3 3 2 1 1 2 4 4 4 4 3 4 4 4
9 11 9 5 5 3 5 9 17 22 12 22 7 11 10 11 11 10 10 15 17 20 22 22 22 19 17 15 11 9 8 8 6 7 4 4 3 2 2 1 4 6 6 6 6 4 5 5 4
7 10 3 1 8 10 8 9 10 14 13 9 9 10 9 10 10 9 8 8 10 20 19 21 21 20 17 14 12 10 9 8 7 6 6 5 4 3 4 4 5 6 6 6 6 5 6 6 4
3 13 6 6 5 7 3 7 1 4 4 6 7 9 10 10 9 8 7 8 8 15 17 18 18 17 15 13 11 9 8 8 7 6 6 6 4 5 6 6 6 6 6 6 6 7 7 6 6
12 4 8 4 8 5 8 12 8 4 1 16 9 8 8 8 9 9 9 9 8 14 16 18 16 15 15 13 10 9 8 8 8 7 7 7 6 6 6 6 6 6 6 7 7 7 7 6 6
Wind_Direction
213 224 143 323 31 122 227 157 142 109 273 241 177 74 83 66 108 128 124 115 119 120 118 110 111 116 121 122 121 122 124 122 119 115 115 113 113 111 107 105 104 108 113 110 104 91 74 38 344
252 258 186 282 145 297 264 130 130 189 227 111 86 96 67 73 81 118 111 121 121 120 114 115 116 115 118 120 122 127 130 129 127 126 127 128 126 122 113 108 110 114 124 128 124 113 100 5 317
232 216 108 170 214 228 257 134 158 219 220 236 105 73 79 119 105 99 129 130 114 103 107 120 121 124 126 128 130 134 136 137 136 139 140 139 136 135 129 123 129 136 145 151 150 148 163 262 301
271 331 315 110 264 272 238 147 188 265 222 108 107 69 49 99 111 134 131 119 110 106 104 117 117 119 123 125 128 132 136 137 138 138 137 137 141 141 141 137 136 142 149 158 166 182 230 264 289
269 283 249 246 267 273 277 167 148 193 176 110 102 107 107 103 123 131 125 119 116 115 114 111 117 119 122 126 126 128 131 132 136 139 141 145 150 149 146 145 149 154 161 182 205 223 242 260 279
308 148 310 261 270 266 276 239 149 146 116 108 95 104 99 120 127 128 122 117 121 123 119 116 117 118 122 125 125 126 127 132 137 143 147 152 156 161 165 161 165 174 187 208 227 250 264 274 282
206 3 259 279 283 296 287 248 143 136 129 122 135 123 143 134 155 119 123 127 132 132 123 125 120 122 119 120 124 128 133 137 141 145 153 160 168 177 180 181 187 194 207 227 242 248 253 261 269
213 163 282 272 282 281 290 310 160 139 150 132 134 150 159 161 129 128 136 135 135 141 141 145 143 138 126 129 129 132 134 136 142 150 157 164 185 198 200 207 212 211 213 219 229 241 248 248 249
232 247 264 264 275 281 312 327 272 98 121 118 159 141 148 156 142 138 135 137 139 139 135 141 150 153 142 138 146 143 149 153 160 165 167 180 191 210 203 212 221 220 219 225 235 242 246 253 261
193 201 240 242 268 284 302 328 182 103 114 113 119 132 143 156 163 153 151 154 147 147 150 159 156 157 151 149 158 163 166 170 183 181 186 201 211 212 206 207 226 213 224 230 235 243 246 256 259
234 238 260 269 276 298 302 313 322 127 113 127 134 143 154 161 166 172 165 161 155 155 158 166 155 156 158 144 161 153 159 179 194 154 120 113 35 45 9 53 302 242 248 248 247 254 228 233 242
249 246 246 263 272 284 287 302 320 262 163 137 138 147 152 158 164 179 166 145 150 154 155 126 142 148 150 139 178 167 160 135 122 83 66 55 28 23 40 38 359 22 325 304 326 336 321 279 269
234 245 250 250 277 271 280 284 282 309 160 148 147 151 157 166 173 177 142 133 140 140 120 111 111 108 123 119 139 116 120 111 112 88 67 64 59 35 18 5 11 360 6 25 354 354 339 332 326
249 247 255 251 224 263 278 268 335 286 199 145 147 154 160 161 172 132 116 132 131 122 116 117 107 103 107 100 94 99 106 103 105 93 92 73 80 56 29 6 354 10 7 352 356 346 332 317 327
259 275 257 252 241 248 252 285 266 270 125 145 146 151 155 169 154 128 123 132 131 129 127 122 117 107 95 102 103 114 116 109 103 105 101 99 92 76 45 18 12 1 359 0 356 338 340 351 350
289 292 257 257 254 235 165 249 259 277 162 150 152 159 160 173 147 127 127 123 120 130 133 138 118 116 110 123 123 112 108 109 118 113 93 79 76 77 49 26 7 355 3 349 338 353 352 354 0
268 243 266 272 257 241 180 229 258 227 159 157 156 159 157 167 133 128 137 130 133 132 133 116 121 128 139 136 124 116 108 108 109 107 95 80 71 69 60 20 344 360 353 343 354 350 13 342 336
244 260 247 251 261 259 252 233 246 223 213 168 163 166 172 168 162 144 138 129 133 135 127 125 134 139 149 132 121 102 92 115 105 122 111 100 82 72 51 14 6 11 5 3 354 355 346 335 321
248 235 254 225 231 223 264 244 217 236 160 241 169 173 175 173 170 149 144 137 138 141 129 138 141 156 143 141 130 125 150 150 117 132 129 115 108 86 63 33 8 12 20 347 338 322 335 330 316
246 254 265 284 268 216 224 232 239 207 216 183 207 187 177 168 156 155 148 148 154 154 148 137 154 156 155 149 153 148 153 161 153 145 137 137 138 155 132 80 2 11 6 348 344 353 328 311 350
239 230 248 248 274 267 224 241 241 206 210 221 197 195 189 178 167 165 158 159 156 159 158 151 161 159 162 159 122 94 80 66 88 159 135 167 171 174 175 183 192 323 27 342 327 328 344 320 325
253 257 245 239 247 243 153 262 245 188 196 225 199 203 191 191 172 168 165 164 164 168 162 152 153 158 167 152 145 145 151 157 199 177 161 174 188 194 186 196 199 202 192 300 300 344 339 1 318
240 275 270 267 247 297 288 91 257 178 208 228 247 195 199 192 176 176 171 169 171 162 167 161 157 158 169 157 162 154 155 158 158 121 151 186 202 199 213 212 205 198 199 236 269 308 311 296 281
242 250 294 292 209 250 246 180 253 229 207 218 229 237 201 193 178 175 171 168 166 167 165 166 161 171 170 165 163 168 173 168 162 157 162 175 226 225 226 237 184 192 206 234 261 265 276 280 282
182 149 310 319 291 223 234 251 240 258 237 208 220 233 215 187 170 164 167 169 166 170 176 172 165 168 171 172 162 163 181 169 168 160 160 195 215 201 119 107 173 220 224 237 251 263 265 267 260
237 173 176 215 216 256 275 257 258 237 261 266 57 253 200 177 167 154 167 171 179 178 172 169 166 163 171 174 162 156 156 158 167 170 193 210 179 160 227 251 266 272 264 259 253 247 249 253 263
244 246 209 179 267 300 248 278 264 253 250 243 145 95 93 96 95 91 111 175 176 175 171 166 168 169 174 170 163 168 166 168 177 197 186 172 187 204 178 229 263 271 266 255 250 248 252 248 246
186 234 231 280 197 245 259 267 265 312 204 152 126 122 107 104 94 87 91 99 168 175 165 166 167 168 170 163 170 172 172 170 173 165 171 187 200 217 246 254 257 264 260 252 246 247 244 240 242
266 271 210 146 175 191 225 263 122 341 57 359 143 128 122 114 116 110 80 75 88 158 157 159 161 159 164 163 171 165 165 170 175 182 196 199 204 218 234 242 254 258 259 254 249 247 244 235 235
304 284 350 208 256 205 190 250 277 346 144 231 166 100 128 140 139 115 104 83 71 131 142 150 151 156 165 173 168 167 166 169 175 185 192 196 208 225 231 241 256 260 258 256 253 255 252 236 241